Location: G�yn�k
(36.6721°N, 30.5542°E)
Time: 05:58:56
(UTC+00:00)

Cosmos 1844 - Pass Details

Date: 07 June 2020
Orbit: 821 x 869 km, 70.9° (Epoch: 05 July)

Event Time Altitude Azimuth Distance (km) Brightness Sun altitude
Rises 01:21:26 0° 338° (NNW) 3,461 7.2 -13.4°
Reaches altitude 10° 01:23:54 10° 340° (NNW) 2,520 6.5 -13.1°
Maximum altitude 01:29:44 83° 69° (ENE) 878 3.9 -12.2°
Drops below altitude 10° 01:35:29 10° 157° (SSE) 2,492 6.0 -11.3°
Sets 01:37:55 0° 158° (SSE) 3,419 6.7 -10.9°
